Regional Weather Roundup
Issued by NWS

Home | Current Version | Previous Version | Graphics & Text | Print | Product List | Glossary On
Versions: 1 2 3 4 5 6 7 8 9 10 11 12 13 14 15 16 17 18 19 20 21 22 23 24 25 26 27 28 29 30 31 32 33 34 35 36 37 38 39 40 41 42 43 44 45 46 47 48 49 50
000
ASUS43 KMKX 210411
RWRWI

WISCONSIN REGIONAL WEATHER ROUNDUP
NATIONAL WEATHER SERVICE MILWAUKEE/SULLIVAN WI
1100 PM CDT SAT SEP 20 2014

NOTE: "FAIR" INDICATES FEW OR NO CLOUDS BELOW 12,000 FEET WITH NO
SIGNIFICANT WEATHER AND/OR OBSTRUCTIONS TO VISIBILITY.

WIZ001-002-006>008-014>016-023>028-210500-
NORTHWEST WISCONSIN

CITY           SKY/WX    TMP DP  RH WIND       PRES   REMARKS
SUPERIOR ARPT  LGT RAIN  54  54  99 CALM      29.71S
ASHLAND        CLOUDY    54  52  93 SW7       29.70F
HAYWARD        LGT RAIN  55  54  96 VRB5      29.72S
SIREN          CLOUDY    55  52  90 W15G23    29.76S
RICE LAKE      RAIN      56  52  86 W9        29.77F
LADYSMITH      RAIN      56  54  94 W6        29.75F
EAU CLAIRE     CLEAR     56  52  86 W8        29.78S
MENOMONIE      CLEAR     57  52  82 W9        29.80S
NEW RICHMOND   PTCLDY    54  52  91 W12       29.81S
OSCEOLA        CLEAR     55  52  89 W10G16    29.83S
$$

WIZ003>005-009-010-017-018-210500-
NORTH CENTRAL WISCONSIN

CITY           SKY/WX    TMP DP  RH WIND       PRES   REMARKS
WOODRUFF       RAIN      57  55  92 W6        29.71F
RHINELANDER    RAIN      53  52  96 W10       29.73R FOG
EAGLE RIVER    CLOUDY    54  54  99 CALM      29.69S
LAND O LAKES   CLOUDY    52  50  94 CALM      29.70S
PHILLIPS       CLOUDY    53  52  97 CALM      29.71F
TOMAHAWK       CLOUDY    52  50  93 CALM      29.72F
MEDFORD        CLOUDY    54  53  97 W7        29.74S
MERRILL        CLOUDY    54  53  96 CALM      29.72F
$$

WIZ029-030-035-036-043>047-210500-
CENTRAL WISCONSIN

CITY           SKY/WX    TMP DP  RH WIND       PRES   REMARKS
WAUSAU         CLOUDY    56  54  93 NW7       29.71R
MOSINEE        CLOUDY    54  54 100 W6        29.74R
MARSHFIELD     PTCLDY    56  53  90 W9        29.75R
STEVENS POINT  CLOUDY    55  53  95 CALM      29.74R
WAUPACA        RAIN      60  58  92 W6        29.71R
WAUTOMA        CLOUDY    60  58  93 NW7       29.72F
WISC RAPIDS    CLOUDY    56  55  97 W7        29.76R
CAMP DOUGLAS   MOCLDY    57  57 100 W10       29.77R
$$

WIZ011>013-019>022-031-037>040-048>050-210500-
NORTHEAST WISCONSIN

CITY           SKY/WX    TMP DP  RH WIND       PRES   REMARKS
ANTIGO         RAIN      54  52  94 NW15      29.73R
STURGEON BAY   CLOUDY    61  57  88 NE13      29.67S
GREEN BAY      CLOUDY    63  58  83 W3        29.66F
MANITOWOC      MOCLDY    66  61  84 W5        29.66F
APPLETON       MOCLDY    63  55  77 W6        29.69F
CLINTONVILLE   HVY RAIN  61  55  82 W24G37    29.73R
OSHKOSH        TSTM      60  57  89 W17G33    29.73R FOG
$$

WIZ032>034-041-042-053>061-210500-
SOUTHWEST WISCONSIN

CITY           SKY/WX    TMP DP  RH WIND       PRES   REMARKS
LA CROSSE      MOCLDY    62  55  77 NW18G31   29.81R
SPARTA         MOCLDY    60  55  84 NW14G24   29.81R
VIROQUA        CLOUDY    59  59  99 NW14G23   29.81R
BOSCOBEL       CLOUDY    63  60  90 SW7       29.80R
PRAIRIE DU CHI MOCLDY    60  58  95 W12       29.83R
PLATTEVILLE    CLOUDY    62  60  96 W7        29.81F
$$

WIZ056-057-062-063-064-067-068-210500-
SOUTH CENTRAL WISCONSIN

CITY           SKY/WX    TMP DP  RH WIND       PRES   REMARKS
BARABOO/DELLS  CLOUDY    59  57  92 SW7       29.74R
LONE ROCK      CLOUDY    65  60  84 W8        29.76S
WATERTOWN      LGT RAIN  64  62  92 W22G30    29.74R
MADISON        CLOUDY    63  59  87 CALM      29.72S
MIDDLETON      CLOUDY    62  61  94 NW5       29.73F
MONROE         RAIN      63  61  94 NW16G22   29.79R
JANESVILLE     RAIN      68  64  88 W12       29.73R
$$

WIZ051-052-058>065-066-070>072-210500-
SOUTHEAST WISCONSIN

CITY           SKY/WX    TMP DP  RH WIND       PRES   REMARKS
MILWAUKEE      MOCLDY    67  63  87 SW7       29.70F
WAUKESHA       MOCLDY    64  61  88 S6        29.70F
MILWAUKEE/TIMM PTCLDY    66  61  82 S5        29.70F
RACINE         PTCLDY    67  63  87 SW6       29.72F
BURLINGTON     PTCLDY    62  62  99 SW6       29.70F
KENOSHA        PTCLDY    67  64  90 SW7       29.72F
FOND DU LAC    TSTM      65  61  87 W32G40    29.70F SQUALL
SHEBOYGAN      MOCLDY    64  61  90 MISG      29.68F
WEST BEND      CLOUDY    63  57  82 CALM      29.69F
JUNEAU         TSTM      59  57  93 W18G46    29.75R VSB 1
$$

LSZ147-162-210500-
LAKE SUPERIOR

STATION/POSITION TIME  TEMP    WIND        PRES    WAVE
                       AIR SEA DIR/SP/G            HT/PER
                 (UTC) (F)     (DEG/KT/KT) (MB)    (FT/S)
W MID LAKE BUOY  0350   49 46   70/ 12/ 12 1005.6R   1/ 4
DEVILS ISLAND    0400   55     360/  8/  9 1005.6R
PORT WING        0300   55     250/  5/ 10 1006.1S
SAXON HARBOR     0300   59     220/  4/  6 1005.4F
$$

LMZ867-665-643>646-210500-
LAKE MICHIGAN

STATION/POSITION TIME  TEMP    WIND        PRES    WAVE
                       AIR SEA DIR/SP/G            HT/PER
                 (UTC) (F)     (DEG/KT/KT) (MB)    (FT/S)
N MID LAKE BUOY  0350   58 58   30/ 14/ 17 1004.4F   3/ 6
NORTHPORT PIER   0400   59     290/  6/ 12 1005.4R
SISTER BAY       0242           80/  9/ 19   N/A
ALGOMA LAKESHORE 0254             CALM       N/A
KEWAUNEE LAKESHO 0300   66     270/  4/  6 1003.9F
SHEBOYGAN LAKESH 0400   66 52  240/  8/  9 1004.8F
PORT WASHINGTON  0300   67     240/  4/  6 1006.4
ATWATER BUOY     0400   66     220/  8/ 10 1006.6F
MILWAUKEE LAKESH 0300   69     210/  8/ 10   N/A
S MID LAKE BUOY  0350   67 63  280/ 10/ 17 1006.6F   1/ 3
KENOSHA   LAKESH 0400   69     220/  8/ 13 1005.8F
$$

TC  - TEMPERATURE IN CELSIUS
VSB - VISIBILITY IN STATUTE MILES
WCI - WIND CHILL INDEX
HX  - HEAT INDEX



USA.gov is the U.S. government's official web portal to all federal, state and local government web resources and services.